Date,TemperatureHighF,TemperatureAvgF,TemperatureLowF,DewpointHighF,DewpointAvgF,DewpointLowF,HumidityHigh,HumidityAvg,HumidityLow,PressureMaxIn,PressureMinIn,WindSpeedMaxMPH,WindSpeedAvgMPH,GustSpeedMaxMPH,PrecipitationSumIn
2013-5-1,76.1,59.1,41.0,30.5,19.9,13.1,53,24,13,30.41,30.29,0,0,0,0.00
2013-5-2,78.4,59.5,40.6,31.7,21.5,14.6,57,26,13,30.44,30.29,0,0,0,0.00
2013-5-3,72.3,58.9,43.9,35.2,20.9,11.6,69,26,14,30.38,30.27,0,0,0,0.00
2013-5-4,75.2,58.2,38.5,33.8,22.2,14.4,68,29,13,30.32,30.15,0,0,0,0.00
2013-5-5,76.1,59.5,42.3,31.8,20.5,12.4,51,24,13,30.24,30.12,0,0,0,0.00
2013-5-6,70.9,57.8,38.7,35.7,24.5,11.4,62,30,17,30.21,30.09,0,0,0,0.00
2013-5-7,76.8,62.9,51.1,46.5,37.3,23.8,70,44,15,30.12,30.00,0,0,0,0.00
2013-5-8,73.9,61.9,55.9,59.8,49.4,30.6,86,67,22,30.03,29.91,0,0,0,0.00
2013-5-9,71.6,60.2,54.1,58.1,48.6,31.9,88,69,23,29.97,29.91,0,0,0,0.00
2013-5-10,76.3,63.7,52.5,59.6,47.8,31.6,89,62,21,30.00,29.85,0,0,0,0.00
2013-5-11,73.6,65.5,60.1,62.2,49.4,28.9,86,62,21,29.85,29.70,0,0,0,0.00
2013-5-12,62.2,54.7,41.7,37.4,18.1,4.8,55,25,16,29.97,29.73,0,0,0,0.00
2013-5-13,56.7,46.8,37.4,17.4,10.5,4.1,40,23,17,30.15,29.97,0,0,0,0.00
2013-5-14,67.8,48.4,30.2,36.9,16.5,8.8,63,32,15,30.18,30.03,0,0,0,0.00
2013-5-15,84.2,61.1,48.4,48.9,31.5,19.7,74,36,13,30.03,29.67,0,0,0,0.00
2013-5-16,87.8,70.4,55.8,58.1,37.5,15.8,87,41,13,29.91,29.73,0,0,0,0.00
2013-5-17,79.2,64.3,46.6,29.2,22.6,12.5,47,22,13,30.18,29.94,0,0,0,0.00
2013-5-18,70.5,62.4,55.2,45.8,29.5,24.3,60,30,19,30.24,30.18,0,0,0,0.00
2013-5-19,64.6,61.5,58.5,58.9,52.2,45.8,86,72,54,30.21,30.12,0,0,0,0.00
2013-5-20,86.9,71.8,62.2,63.3,49.7,36.0,88,54,18,30.12,29.94,0,0,0,0.00
2013-5-21,94.1,77.7,61.7,65.5,47.4,30.5,87,44,11,29.97,29.79,0,0,0,0.00
2013-5-22,92.1,77.9,65.8,66.7,47.6,29.0,86,47,12,29.88,29.76,0,0,0,0.00
2013-5-23,79.9,69.5,62.6,64.2,56.0,31.1,86,67,21,29.88,29.73,0,0,0,0.00
2013-5-24,63.0,54.5,47.7,59.0,32.4,12.7,87,49,22,30.15,29.73,0,0,0,0.00
2013-5-25,68.2,54.8,43.5,18.8,14.6,10.2,33,21,15,30.15,30.06,0,0,0,0.00
2013-5-26,75.2,58.7,46.0,21.2,15.6,8.8,33,19,13,30.21,30.09,0,0,0,0.00
2013-5-27,76.1,58.3,37.6,37.7,25.3,15.7,85,37,13,30.27,30.15,0,0,0,0.00
2013-5-28,68.2,59.8,54.0,59.1,49.3,36.2,85,69,48,30.18,30.06,0,0,0,0.00
2013-5-29,92.5,74.7,61.3,63.1,46.2,26.7,88,49,12,30.09,30.00,0,0,0,0.00
2013-5-30,95.2,76.7,59.2,62.5,44.7,29.6,88,44,11,30.18,30.06,0,0,0,0.00
2013-5-31,94.6,78.1,63.0,67.4,45.2,27.0,86,43,11,30.15,29.97,0,0,0,0.00